Location: *
(55.7478°N, 37.5319°E)
Time: 12:33:21
(UTC+00:00)

Daily predictions for brighter satellites

Satellite Brightness Start Highest point End
(mag) Time Altitude Azimuth Time Altitude Azimuth Time Altitude Azimuth
Cosmos 2084 3.6 14:38:51 10° SW 14:43:23 87° SE 14:47:50 10° NE
Unknown 4.0 14:40:18 10° WSW 14:44:22 58° S 14:48:27 10° E
Cosmos 1535 Rocket 4.5 14:38:43 10° N 14:44:58 74° ENE 14:51:05 10° SSE
Cosmos 1703 3.3 14:41:18 10° N 14:45:14 60° ENE 14:49:06 10° SSE
Unknown 4.0 14:41:11 10° WSW 14:45:15 59° S 14:49:20 10° E
Unknown 4.0 14:41:58 10° WSW 14:46:03 59° S 14:50:08 10° E
CZ-4B R/B 3.7 14:44:55 10° N 14:47:27 23° WNW 14:49:58 10° WSW
Unknown 4.0 14:43:48 10° WSW 14:47:54 59° S 14:51:59 10° E
Nadezhda 3 Rocket 4.1 14:41:45 10° S 14:48:04 78° E 14:54:28 10° NNE
Meteor 2-10 4.3 14:45:09 10° SSE 14:49:52 43° E 14:54:39 10° NNE
Unknown 4.0 14:46:56 10° WSW 14:51:02 59° S 14:55:07 10° E
Cosmos 1992 Rocket 4.1 14:45:59 10° SSW 14:51:13 88° WNW 14:56:29 10° NNE
Ariane Rocket 4.1 14:47:17 10° ESE 14:51:25 25° NE 14:55:33 10° N
Cosmos 2278 Rocket 2.9 14:48:42 10° S 14:53:46 35° ESE 14:58:52 10° NE
Unknown 4.0 14:50:15 10° WSW 14:54:20 59° S 14:58:26 10° E
Meteor 1-16 Rocket 4.2 14:49:02 10° S 14:54:22 58° E 14:59:36 10° NNE
ASTEX 1 3.8 14:49:50 10° NNE 14:54:34 41° E 14:59:16 10° SSE
Unknown 4.0 14:51:51 10° WSW 14:55:57 60° S 15:00:02 10° E
SWAS 4.5 14:52:45 10° SSW 14:57:02 86° SE 15:01:23 10° NE
Cosmos 2228 3.0 14:52:50 10° S 14:57:11 79° E 15:01:31 10° NNE
Unknown 4.0 14:53:33 10° WSW 14:57:39 60° S 15:01:44 10° E
Lacrosse 5 2.9 14:53:37 10° WNW 14:58:29 48° SW 15:03:19 10° SE
Cosmos 1937 Rocket 4.3 14:54:20 10° NNW 14:58:57 32° NE 15:03:32 10° ESE
Unknown 4.0 14:55:09 10° WSW 14:59:14 60° S 15:03:20 10° E
CSL-04 Rocket 3.9 14:56:32 10° SE 15:01:49 50° ENE 15:07:04 10° N
Cosmos 1844 3.8 14:56:11 10° SSW 15:01:57 90° WNW 15:07:49 10° NE
Cosmos 1908 3.7 14:59:09 10° SSE 15:02:47 38° E 15:06:24 10° NNE
Cosmos 921 Rocket 3.0 14:58:22 10° SSW 15:02:51 82° ESE 15:07:18 10° NNE
SKYMED 2 4.4 15:00:22 10° NNE 15:04:13 29° E 15:08:01 10° SSE
Unknown 4.0 15:01:50 10° WSW 15:05:56 60° S 15:09:54 11° E
Cosmos 2263 Rocket 3.7 15:01:16 10° W 15:06:16 31° NW 15:11:15 10° NNE
EO 1 Delta rocket 4.3 15:02:12 10° SE 15:06:45 46° ENE 15:12:05 10° N
Unknown 4.0 15:03:30 10° WSW 15:07:36 60° S 15:11:31 11° E
Meteor 1-11 4.3 15:02:01 10° NNW 15:07:50 86° ENE 15:13:39 10° SSE
YAOGAN 1 2.8 15:04:20 10° SE 15:08:28 46° ENE 15:12:37 10° N
Unknown 4.0 15:05:10 10° W 15:09:15 60° S 15:13:07 11° E
YAOGAN 6 2.7 15:07:08 10° SE 15:10:39 50° ENE 15:14:09 10° N
Unknown 3.9 15:06:48 10° W 15:10:53 60° S 15:14:41 12° E
Unknown 4.0 15:08:28 10° W 15:12:33 60° S 15:16:18 12° ESE
FengYun 1-2 T 4.2 15:07:08 10° SSE 15:12:42 71° ENE 15:18:16 10° NNW
Cosmos 1726 Rocket 3.7 15:09:54 10° SSW 15:14:17 79° WNW 15:18:39 10° N
Cosmos 489 Rocket 4.5 15:08:22 10° S 15:14:29 64° ESE 15:20:39 10° NNE
Cosmos 2100 Rocket 4.4 15:08:49 10° N 15:14:40 41° ENE 15:20:26 10° SE
Unknown 4.2 15:11:23 10° W 15:15:06 48° SSW 15:18:48 10° ESE
ATLAS 3B R/B 4.0 15:11:29 10° SE 15:15:10 16° ESE 15:17:53 12° E
Unknown 3.9 15:11:46 10° W 15:15:52 60° S 15:19:29 13° ESE
CZ-4 R/B 1.5 15:12:37 10° SSE 15:16:48 65° ENE 15:21:01 10° N
Cosmos 1833 Rocket 3.2 15:11:34 10° NW 15:17:09 65° WSW 15:22:42 10° SSE
Starlink (trailer) 3.9 15:13:26 10° W 15:17:31 60° S 15:21:04 13° ESE
Unknown 3.9 15:15:07 10° W 15:19:12 60° S 15:22:41 14° ESE
ATLAS CENTAUR R/B 2.6 15:16:15 10° NW 15:20:29 32° NNE 15:23:38 15° ENE
Unknown 3.9 15:16:49 10° W 15:20:54 60° S 15:24:20 14° ESE
CENTAUR R/B 3.9 15:17:12 10° SE 15:21:02 17° ESE 15:23:55 13° ENE
NOAA 11 4.4 15:18:46 10° SE 15:23:56 47° ENE 15:29:07 10° N
Cosmos 1892 3.9 15:22:46 10° NNE 15:25:48 22° ENE 15:27:33 16° E
Unknown 3.9 15:21:46 10° W 15:25:51 60° S 15:29:06 16° ESE
SJ-6B 4.5 15:25:28 14° ENE 15:25:54 15° NE 15:27:59 10° NNE
Unknown 3.9 15:23:23 10° W 15:27:29 60° S 15:30:39 16° ESE
Cosmos 1953 3.8 15:24:35 10° SW 15:28:27 40° WNW 15:32:20 10° N
Cosmos-2242 4.4 15:26:00 10° ESE 15:28:49 17° E 15:31:37 10° NE
Unknown 3.9 15:25:03 10° W 15:29:08 59° S 15:32:15 17° ESE
Cosmos 1153 Rocket 4.4 15:24:33 10° N 15:30:43 71° ENE 15:36:51 10° SSE
Unknown 4.0 15:26:39 10° W 15:30:46 59° S 15:33:52 17° ESE
Cosmos 292 Rocket 3.8 15:27:15 10° SSW 15:32:01 88° WNW 15:36:50 10° NNE
Unknown 3.9 15:28:21 10° W 15:32:27 59° S 15:35:26 17° ESE
Unknown 4.0 15:30:07 10° W 15:34:11 59° S 15:37:08 18° ESE
SL-27 R/B 3.3 15:33:47 10° N 15:36:45 28° NE 15:37:51 23° E
Unknown 4.0 15:33:23 10° W 15:37:28 58° S 15:40:16 19° ESE
Unknown 4.0 15:33:26 10° W 15:37:30 58° S 15:40:20 19° ESE
SJ 16-02 1.7 15:34:44 10° NNW 15:38:59 45° NE 15:42:24 15° SE
Unknown 4.0 15:35:01 10° W 15:39:06 58° S 15:41:51 20° ESE
Unknown 4.0 15:38:15 10° W 15:42:20 58° S 15:44:57 21° ESE
COBE Rocket 3.9 15:38:00 10° NNE 15:43:12 84° ESE 15:48:16 10° SSW
Unknown 4.3 15:40:05 10° W 15:43:48 44° SSW 15:46:30 17° SE
Cosmos 2058 Rocket 3.6 15:41:07 10° SSW 15:45:26 60° WNW 15:49:47 10° N
Unknown 4.0 15:41:39 10° W 15:45:44 57° S 15:48:14 22° ESE
Cosmos 2227 Rocket 4.1 15:43:03 10° NW 15:46:48 18° N 15:50:32 10° NE
SPOT 3 Rocket 4.4 15:44:39 20° E 15:47:14 30° NE 15:51:43 10° N
Unknown 4.0 15:43:18 10° W 15:47:22 57° S 15:49:49 22° ESE
Envisat 3.7 15:42:23 10° S 15:47:23 57° W 15:52:25 10° NNW
Cosmos 1300 3.0 15:45:27 10° SSE 15:49:03 41° E 15:52:41 10° NNE
Unknown 4.0 15:44:58 10° W 15:49:03 57° S 15:51:26 23° ESE
Unknown 4.0 15:46:39 10° W 15:50:44 56° S 15:53:04 24° ESE
Cosmos 2297 Rocket 4.1 15:47:38 10° NW 15:51:24 18° N 15:54:51 11° NE
Abrixas rocket 3.8 15:49:31 10° SW 15:51:53 20° S 15:52:46 18° SSE
Cosmos 2082 Rocket 3.0 15:46:38 10° NW 15:52:12 53° WSW 15:57:42 10° S
COSMO-SKYMED 1 2.5 15:48:08 10° NNE 15:52:31 75° ESE 15:56:52 10° S
Cosmos 1898 Rocket 3.5 15:47:25 10° NNW 15:52:44 80° ENE 15:58:03 10° SSE
CSL-04 Debris 4.3 15:47:19 10° SSE 15:52:48 79° WSW 15:58:20 10° NNW
USA 238 DEB 3.9 15:46:30 10° SSW 15:52:58 52° SE 15:58:43 14° ENE
USA 238 3.9 15:46:37 10° SSW 15:53:05 52° SE 15:58:46 15° ENE
Unknown 4.0 15:49:58 10° W 15:54:03 56° S 15:56:14 25° ESE
Unknown 4.0 15:51:41 10° W 15:55:45 55° S 15:57:53 25° ESE
Cosmos 1408 4.0 15:53:11 10° N 15:55:38 22° NE 15:55:38 22° NE
Unknown 4.0 15:53:15 10° W 15:57:19 55° S 15:59:24 26° ESE
MOS 1 4.4 15:52:26 10° SE 15:57:52 52° ENE 16:03:21 10° N
Unknown 4.0 15:54:52 10° W 15:58:56 55° S 16:00:56 27° SE
Cosmos 1459 Rocket 3.9 15:52:46 10° N 15:59:01 69° ENE 16:05:19 10° SSE
Unknown 4.0 15:56:35 10° W 16:00:39 54° S 16:02:37 28° SE
Cosmos 1844 Rocket 3.9 15:55:33 10° WSW 16:00:50 40° NW 16:06:09 10° NNE
Cosmos 2058 2.8 15:57:39 10° N 16:01:55 82° ENE 16:06:08 10° SSE
Unknown 4.0 15:58:06 10° W 16:02:09 55° S 16:04:02 29° SE
H-2A R/B 2.8 16:00:04 25° E 16:02:14 34° ENE 16:07:06 10° N
CZ-2D R/B 3.2 15:59:21 10° SSE 16:03:14 85° ENE 16:07:09 10° NNW
Unknown 4.0 16:01:22 10° W 16:05:25 54° S 16:07:11 30° SE
Unknown 4.0 16:03:03 10° W 16:07:06 54° S 16:08:48 31° SE
Cosmos 1766 Rocket 3.7 16:03:21 10° N 16:07:37 50° ENE 16:09:49 26° SE
Cosmos 1076 Rocket 3.8 16:03:18 10° NNW 16:07:41 70° W 16:11:59 10° S
Unknown 4.1 16:04:53 10° W 16:08:56 52° SSW 16:10:35 31° SE
Unknown 4.2 16:05:15 10° W 16:09:10 47° SSW 16:10:50 29° SE
Unknown 4.1 16:06:25 10° W 16:10:28 53° SSW 16:12:02 32° SE
Unknown 4.1 16:08:03 10° W 16:12:05 52° SSW 16:13:36 33° SE
IRS-1A Rocket 4.1 16:06:42 10° SSE 16:12:12 76° ENE 16:17:47 10° NNW
Cosmos 2061 Rocket 3.9 16:05:59 10° N 16:12:13 65° ENE 16:18:23 10° SSE
In-Cosmos 22 Rocket 4.1 16:08:27 10° NNW 16:13:53 88° E 16:19:26 10° SSE
NOSS 3-2 (A) 3.6 16:08:58 10° SSW 16:14:45 56° SE 16:19:08 21° ENE
Unknown 4.1 16:11:22 10° W 16:15:25 52° SSW 16:16:48 35° SE
Cosmos 1125 Rocket 4.3 16:11:46 10° NNW 16:16:34 33° NE 16:17:40 30° ENE
Cosmos 1939 Rocket 2.9 16:12:49 10° SSE 16:16:53 80° WSW 16:21:01 10° NNW
Unknown 4.1 16:13:00 10° W 16:17:02 51° SSW 16:18:23 35° SE
ATLAS 5 CENTAUR R/B 2.9 16:12:35 10° W 16:17:03 40° NNW 16:20:17 20° NE
Cosmos 1408 Rocket 3.8 16:13:08 10° N 16:17:17 43° ENE 16:17:49 41° E
Unknown 4.1 16:14:40 10° W 16:18:42 51° SSW 16:19:58 36° SE
Cosmos 1726 4.3 16:16:21 10° SW 16:19:28 26° WNW 16:22:38 10° N
Unknown 4.1 16:16:22 10° W 16:20:23 50° SSW 16:21:36 37° SE
Unknown 4.2 16:17:43 10° W 16:21:40 47° SSW 16:22:50 36° SSE
ADEOS Rocket 4.0 16:15:57 10° NNE 16:22:47 34° E 16:26:12 23° SE
Cosmos 2151 2.9 16:19:19 10° N 16:23:39 72° ENE 16:25:51 28° SSE
Unknown 4.1 16:19:41 10° W 16:23:42 49° SSW 16:24:48 38° SSE
Okean 3 Rocket 3.5 16:19:45 10° NNW 16:24:19 87° ENE 16:28:25 12° SSE
Unknown 4.2 16:20:35 10° W 16:24:35 48° SSW 16:25:40 38° SSE
Unknown 4.2 16:21:23 10° W 16:25:22 47° SSW 16:26:27 37° SSE
Unknown 4.2 16:23:13 10° W 16:27:13 47° SSW 16:28:14 38° SSE
Cosmos 2173 Rocket 4.1 16:23:29 10° NNW 16:29:46 79° W 16:35:56 10° S
Ariane Rocket 3.1 16:24:50 10° SSE 16:29:57 75° WSW 16:35:06 10° NNW
Unknown 4.2 16:26:21 10° W 16:30:21 47° SSW 16:31:13 40° SSE
Meteor 2-1 Rocket 4.1 16:25:19 10° S 16:30:48 69° E 16:36:26 10° NNE
Cosmos 1818 4.5 16:26:46 10° NW 16:31:51 37° NNE 16:33:31 30° NE
Cosmos 468 Rocket 4.1 16:28:12 10° S 16:33:18 52° ESE 16:35:27 32° NE
Cosmos 1727 Rocket 4.2 16:27:18 10° SSW 16:33:28 74° WNW 16:39:41 10° N
Unknown 4.2 16:29:40 10° W 16:33:40 46° SSW 16:34:24 41° SSE
Cosmos 1812 Rocket 4.0 16:30:00 10° SSW 16:34:24 62° WNW 16:38:53 10° N
Unknown 4.2 16:31:17 10° W 16:35:16 46° SSW 16:35:57 41° SSE
Cosmos 1864 Rocket 4.3 16:29:53 10° N 16:36:04 73° ENE 16:40:52 18° SSE
Unknown 4.2 16:32:59 10° W 16:36:57 45° SSW 16:37:35 42° S
Resurs 01 Rocket 2.9 16:38:16 26° NE 16:38:16 26° NE 16:41:02 10° N
Cosmos 2278 Rocket 2.7 16:31:59 10° SW 16:37:37 61° NW 16:43:18 10° NNE
Unknown 4.2 16:34:35 10° W 16:38:33 45° SSW 16:39:07 42° S
Cosmos 1238 Rocket 4.2 16:32:30 10° N 16:38:55 48° ENE 16:40:24 41° ESE
Lacrosse 5 4.5 16:37:46 10° W 16:40:28 15° SW 16:43:10 10° SSW
HJ-1C 3.9 16:39:48 43° SSW 16:40:38 59° WSW 16:43:58 10° NNW
Cosmos 1937 Rocket 3.8 16:36:13 10° NNW 16:41:19 63° WSW 16:44:59 19° S
NOSS 3-2 (C) 3.5 16:36:01 10° SSW 16:41:50 56° SE 16:44:15 37° ENE
Cosmos 2150 Rocket 4.0 16:37:15 10° NNW 16:42:44 71° ENE 16:44:12 48° SE
Cosmos 2297 3.6 16:38:01 10° SSW 16:43:41 68° ESE 16:47:20 23° NE
Cosmos 1802 Rocket 4.2 16:37:37 10° NNW 16:44:04 77° W 16:50:27 10° S
Unknown 4.3 16:41:18 10° W 16:45:14 43° SSW 16:45:34 42° S
Unknown 4.3 16:42:58 10° W 16:46:54 42° SSW 16:47:10 42° S
ARGOS 3.1 16:46:19 50° ESE 16:47:28 61° ENE 16:52:50 10° NNW
Unknown 4.3 16:44:37 10° W 16:48:33 42° SSW 16:48:46 41° S
Cosmos 2123 Rocket 3.9 16:43:32 10° S 16:49:41 60° E 16:55:50 10° NNE
Unknown 4.4 16:46:16 10° W 16:50:10 41° SSW 16:50:20 41° SSW
Cosmos 2233 Rocket 4.0 16:44:26 10° N 16:50:43 63° ENE 16:52:45 43° SE
Unknown 4.4 16:47:56 10° W 16:51:51 41° SSW 16:51:57 41° SSW
Cosmos 2263 Rocket 4.3 16:48:16 10° NW 16:52:01 18° N 16:55:29 11° NNE
SJ-11-01 4.3 16:50:12 37° S 16:52:05 81° WSW 16:56:48 10° NNW
CZ-4 R/B 4.2 16:49:06 10° SW 16:52:13 20° W 16:55:23 10° NW
Cosmos 1825 3.5 16:49:01 10° N 16:51:05 30° N 16:51:05 30° N
Cosmos 1725 Rocket 3.9 16:47:56 10° NNW 16:54:16 89° WSW 16:59:06 18° S
Unknown 4.5 16:51:15 10° W 16:55:09 40° SSW 16:55:09 40° SSW
Cosmos 1000 Rocket 4.5 16:49:20 10° S 16:55:35 87° W 17:01:56 10° N
Cosmos 1570 Rocket 4.4 16:50:26 10° S 16:54:25 45° SSE 16:54:25 45° SSE
SJ-6B 3.5 17:01:06 46° NNW 17:01:06 46° NNW 17:03:49 10° NNW
ATLAS CENTAUR R/B 1.5 16:55:28 10° NW 16:59:50 73° N 16:59:50 73° N
Cosmos 372 Rocket 3.8 16:55:41 10° NNW 17:00:52 86° ENE 17:01:31 69° SE
Cosmos 1892 3.6 16:58:05 10° NNW 17:01:46 47° W 17:02:35 39° SW
ATLAS 3B R/B 2.6 16:58:02 10° SSW 17:04:33 57° SE 17:05:11 55° ESE
Cosmos-2242 3.1 17:01:30 10° SSW 17:05:51 75° WNW 17:10:12 10° N
CZ-2C R/B 3.2 17:07:08 62° E 17:07:28 64° ENE 17:13:06 10° N
Cosmos 44 3.3 17:02:39 10° SW 17:06:47 64° SSW 17:06:47 64° SSW
Cosmos 1763 Rocket 3.5 17:02:44 10° SSW 17:07:19 63° SSE 17:07:19 63° SSE
CENTAUR R/B 2.5 17:04:05 10° SSW 17:10:12 62° SE 17:11:09 57° E
SL-27 R/B 4.2 17:08:54 10° NW 17:11:27 29° W 17:11:27 29° W
Cosmos 2298 Rocket 4.2 17:07:48 10° NNW 17:13:07 71° WSW 17:14:08 55° S
SJ 16-02 3.0 17:13:35 10° NW 17:17:26 31° WSW 17:19:25 21° SSW
Cosmos 1743 Rocket 4.5 17:13:15 10° N 17:16:06 40° N 17:16:06 40° N
Cosmos 1833 4.0 17:12:28 10° NW 17:18:09 84° NE 17:18:24 81° ESE
Terra 4.2 17:23:38 13° NNE 17:23:38 13° NNE 17:24:23 10° N
Meteor 2-3 Rocket 3.6 17:19:35 10° NNW 17:25:25 88° ENE 17:25:41 82° SSE
SPOT 3 Rocket 3.9 17:25:19 52° SSW 17:26:20 63° WSW 17:31:33 10° NNW
Cosmos 2227 Rocket 3.5 17:27:54 10° NNW 17:32:20 28° NNE 17:32:20 28° NNE
MetOp-A 4.3 17:36:52 69° NNW 17:36:52 69° NNW 17:41:35 10° NNW
Cosmos 2297 Rocket 3.5 17:32:21 10° NNW 17:36:39 29° NNE 17:36:39 29° NNE
H-2A R/B 2.6 17:40:42 52° SW 17:41:26 57° W 17:46:51 10° NNW
USA 238 DEB 3.9 17:37:06 10° WSW 17:43:53 66° NNW 17:46:09 44° NE
USA 238 3.9 17:37:13 10° WSW 17:43:59 66° NNW 17:46:13 44° NE
Timation 2 Rocket 4.0 17:49:24 10° NW 17:54:41 70° NW 17:54:41 70° NW
Cosmos 1125 Rocket 4.3 17:53:48 10° NNW 17:57:57 50° WNW 17:57:57 50° WNW
ATLAS 5 CENTAUR R/B 3.2 17:57:58 10° WNW 18:01:48 37° NNW 18:01:48 37° NNW
NOSS 3-2 (A) 3.9 17:59:33 10° WSW 18:05:41 61° NNW 18:06:32 56° N
ADEOS Rocket 3.6 18:01:13 10° NNE 18:08:57 75° WNW 18:13:06 29° SSW
Resurs 01 Rocket 3.7 18:15:51 24° NW 18:15:51 24° NW 18:17:50 10° NNW
Cosmos 2278 Rocket 4.2 18:18:19 10° WNW 18:22:52 24° NNW 18:25:42 17° NNE
Cosmos 2219 4.5 18:18:52 10° NNW 18:22:14 35° NNW 18:22:14 35° NNW
NOSS 3-2 (C) 4.1 18:26:40 10° WSW 18:31:44 53° WNW 18:31:44 53° WNW
Cosmos 2263 Rocket 4.2 18:33:57 10° NNW 18:37:10 20° N 18:37:10 20° N
ATLAS CENTAUR R/B 4.3 18:35:02 10° WNW 18:36:02 15° WNW 18:36:02 15° WNW
ATLAS 3B R/B 3.8 18:48:42 10° WSW 18:52:29 35° W 18:52:29 35° W
CENTAUR R/B 3.8 18:54:36 10° WSW 18:58:23 37° W 18:58:23 37° W
Cosmos 2227 Rocket 4.2 19:11:57 10° NNW 19:14:09 24° NNW 19:14:09 24° NNW
Cosmos 2297 Rocket 4.3 19:16:24 10° NW 19:18:26 23° NW 19:18:26 23° NW
Cosmos 2322 Rocket 4.4 22:56:39 20° NE 22:56:39 20° NE 22:58:18 10° NE
Cosmos 2360 Rocket 4.4 23:02:42 21° NE 23:02:42 21° NE 23:04:37 10° NE
Cosmos 1943 Rocket 4.5 23:01:17 19° NNE 23:01:27 19° NNE 23:05:29 10° ENE
Cosmos 1980 Rocket 4.3 23:08:24 22° NNE 23:08:24 22° NNE 23:10:29 10° NNE
CZ-2D R/B 4.5 23:00:39 10° NNE 23:02:07 19° NNE 23:02:07 19° NNE
ATLAS 2AS CENTAUR R/B 4.4 23:20:18 28° ESE 23:20:23 28° ESE 23:26:52 10° ENE
Cosmos 2344 4.4 23:26:09 47° NW 23:28:50 62° NNE 23:40:06 10° E
COSMOS 2455 4.3 23:35:14 34° ENE 23:35:14 34° ENE 23:38:41 10° NE
Resurs 1-4 Rocket 3.9 23:45:26 10° NNE 23:47:39 26° NNE 23:47:39 26° NNE
